Cloud_Cover
0 0 0 0 0 0 0 0 2 2 0 0 0 0 0 0 0 5 12 86 79 98 70 54 99 20 13 7 50 83 100 100 100 100 100 100 100 100 100 100 100 100 100 100
0 0 0 0 0 0 0 3 5 3 0 0 0 0 0 0 1 5 3 22 65 95 54 100 100 93 6 1 42 8 87 52 52 100 100 100 100 100 99 99 100 100 100 100
0 0 0 2 0 0 3 5 12 5 16 1 0 0 5 1 3 5 2 4 55 35 22 99 81 59 24 7 76 69 77 96 81 100 100 100 100 100 100 100 100 100 100 100
0 0 0 0 0 0 5 5 58 95 45 2 0 0 0 0 0 1 0 2 4 70 97 40 86 93 100 68 5 8 82 100 98 85 100 100 100 100 100 100 100 100 100 100
0 0 0 0 0 0 0 5 36 99 66 5 0 0 0 5 0 0 5 5 0 79 60 45 72 100 100 30 85 100 85 100 93 100 100 100 100 100 100 100 100 100 100 100
0 0 0 0 0 0 0 5 8 72 7 5 0 0 0 3 25 1 0 0 0 27 100 100 100 97 100 48 99 100 100 100 100 100 100 100 100 100 100 100 100 100 100 100
0 0 0 0 0 0 0 5 96 98 98 5 0 0 0 2 0 5 0 0 0 0 98 100 100 100 87 98 100 77 100 100 100 98 100 100 100 100 100 100 100 100 100 100
0 0 0 0 0 0 0 0 73 98 89 5 0 0 2 1 5 0 0 0 0 0 19 100 100 100 84 99 100 98 100 99 100 100 100 100 100 100 100 100 100 100 100 98
0 0 0 0 0 0 0 0 47 86 5 5 0 0 4 4 5 2 0 0 0 55 17 12 100 99 100 100 100 100 98 62 37 73 99 100 100 100 100 100 100 100 100 99
0 0 0 0 0 0 0 3 62 75 22 38 4 0 1 0 0 0 0 0 0 42 3 8 99 98 87 100 100 77 93 93 81 19 100 100 100 100 86 68 100 100 100 98
0 0 0 0 0 0 0 1 5 1 5 68 5 1 0 0 2 1 0 0 6 26 98 100 100 98 86 100 86 58 70 45 95 8 20 96 100 73 75 100 100 100 100 100
0 0 0 0 0 0 0 0 0 0 57 5 5 1 0 0 0 4 0 0 0 4 2 63 100 100 92 100 55 99 44 5 0 3 5 89 97 92 54 97 54 29 78 28
0 0 0 0 0 0 0 0 0 0 5 5 37 2 0 0 0 0 5 0 47 100 59 61 41 99 100 100 100 58 87 4 0 5 5 2 2 3 5 8 6 11 31 38
0 0 0 0 0 0 0 0 0 0 4 20 53 0 5 0 5 5 5 0 82 98 18 89 94 89 100 89 80 7 12 43 40 5 5 1 0 0 1 13 43 49 27 12
0 0 0 0 0 0 0 0 0 0 1 4 4 9 46 0 4 5 5 0 23 94 29 60 51 62 68 92 96 91 100 99 99 14 10 5 4 23 29 20 5 1 0 0
0 0 0 0 0 0 0 0 0 0 0 5 4 53 4 0 0 0 0 3 5 20 40 41 32 33 6 4 29 19 27 5 5 5 5 13 28 10 2 0 0 0 0 0
0 0 0 0 0 0 0 0 0 0 5 8 18 0 17 2 0 4 5 5 5 1 12 10 8 1 0 0 0 0 0 0 0 3 3 0 0 0 0 1 0 0 0 0
0 0 0 0 0 0 0 0 0 4 5 27 48 0 5 3 1 5 5 5 5 1 0 0 0 0 0 0 0 0 0 0 0 0 0 0 0 0 0 0 0 0 0 0
0 0 0 0 0 0 0 0 0 0 3 4 5 0 0 2 44 5 5 5 0 0 0 0 0 0 0 0 0 0 0 0 0 0 0 0 0 0 0 0 0 0 0 0
0 0 4 0 0 0 0 0 0 1 0 0 0 0 0 36 15 91 6 8 2 0 0 0 0 0 0 0 0 0 0 0 0 0 0 0 0 0 0 0 0 0 0 0
2 90 50 0 0 0 0 0 0 0 0 0 0 0 2 5 53 60 100 41 5 5 2 0 0 0 0 0 0 0 0 2 0 0 0 0 0 0 0 0 0 0 0 0
37 82 6 1 2 3 0 0 0 0 0 0 0 0 2 11 100 100 100 61 3 5 5 3 0 0 0 0 0 0 0 0 0 0 0 0 0 0 0 0 0 0 0 0
4 4 5 0 42 60 23 5 0 0 0 0 0 5 5 23 90 100 100 5 5 0 0 0 0 0 0 0 0 0 0 0 0 0 0 0 0 0 0 0 0 0 0 0
0 0 2 3 19 8 66 5 4 0 4 25 5 4 32 65 100 73 43 4 4 0 0 0 0 0 0 0 0 0 2 0 0 0 0 0 0 2 0 0 0 0 0 0
0 0 0 6 51 49 21 2 0 2 13 66 90 91 100 100 97 43 37 7 5 1 0 0 0 0 0 2 0 5 3 0 0 0 0 0 0 0 0 0 0 0 0 0
0 0 1 7 46 86 6 1 6 97 34 100 76 100 97 91 83 79 100 100 100 1 0 3 2 5 5 5 1 4 1 0 0 0 0 0 0 0 0 0 0 0 0 0